CZ-6A DEB, 61081

Orbit data source: Space-Track

CZ-6A DEB, 61081 is space debris in LEO originally from a launch on Tue, 06 Aug 2024 UTC launched from the Taiyaun Space Center, China (TSC). Debris objects in space refer to the collection of defunct objects orbiting the Earth. Examples of debris include non-operational satellites, rocket bodies, and fragments generated from explosions, collisions, or faulty payload assembly.

Loading next visibility...
Identifier
61081, 2024-140MX
Orbit
LEO
Country
Flag of CNCN / PRC
Related business
Manufacturer
SAST
Mission
Spacecraft
Bus & Motor
Unknown
Mass
Unknown
Launch date (UTC)
2024-08-06 (2 years ago)
Launch vehicle
Unknown
Launch site
Taiyaun Space Center, China (TSC)
Object type
Payload
Rocket body
Debris
Shape & HBR
Unknown shape, 0.1 m
Radar Cross Section
Small (<0.1 m²)

Expand to show TLE details & history
Last TLE update: 10 hours ago

TLE from 10 hours ago
0 CZ-6A DEB
1 61081U 24140MX  26130.14866793  .00001733  00000-0  30689-3 0  9996
2 61081  88.9774 272.5607 0112915  11.1312 349.2359 14.62736530 90717
Epoch: 2026-05-10T03:34Z
TLE epoch observation values (Epoch: 2026-05-10T03:34:04.909Z)
Latitude
-0.00002°
Longitude
-8.91566°
Altitude
609.138 km
Speed
7.596 km/s
True Right ascension
18h 10m 14s
True Declination
0° 00' 00"
Sunlit
Object was in full shadow at epoch
Visualization orbit readout
Latitude
Unknown
Longitude
Unknown
Altitude
Unknown
Speed
Unknown
Apparent Right ascension
Unknown
Apparent Declination
Unknown
Sunlit
N/A
Visualization observer readout
Local Sidereal Time
21:27:34
Azimuth
Unknown
Elevation
Unknown
Doppler factor
Unknown
Orbital elements
Apogee altitude
760.952 km
Perigee altitude
601.531 km
Semi-major axis
7,059.379 km
Eccentricity
0.01129
Inclination
88.9774°
RAAN
272.5607°
Arg. of periapsis
11.1312°
True anomaly
348.99085°
Mean anomaly
349.2359°
Eccentric anomaly
349.11372°
Mean motion
3.65926 °/min
Orbital period
98.38 mins
BSTAR
0.00030689
Loading maneuver chart data...
Computing Atmospheric mass density...
Loading historical data...
Loading historical data...
Loading historical data...
Loading historical data...
Loading historical data...
Loading historical data...
Loading historical data...

Documentation

Showing up to 5 results
|